Volver al catálogo

COSMOS 1217

ActivoNavegaciónHEO
NORAD 12032·PAYLOAD·🇷🇺 Russia

Lanzado Oct 24, 1980 desde Plesetsk Cosmodrome

Loading…

Próximos Pases (próximas 24 horas)

TLE

ActualizadoSource: Space-Track

Época: Sep 10, 2026, 18:09 UTC

1 12032U 80085A   26253.75691224 -.00000700  00000-0  00000-0 0  9991
2 12032  70.1610 173.4846 5784669 236.3397  54.9235  2.00996154283935

Sigue COSMOS 1217 en tiempo real con AllMySat

Download on the App Store